owner,sensor,date,latitude,longitude,air_temperature,qcFlag 
LUMCON,ioos:station:LUMCON:103:1,2010-07-01T00:00:00Z,30.1889,-90.1683,25.8,11111222 
LUMCON,ioos:station:LUMCON:103:1,2010-07-01T01:00:00Z,30.1889,-90.1683,25.8,11111222 
LUMCON,ioos:station:LUMCON:103:1,2010-07-01T02:00:00Z,30.1889,-90.1683,26.5,11111222 
LUMCON,ioos:station:LUMCON:103:1,2010-07-01T03:00:00Z,30.1889,-90.1683,26.3,11111222 
LUMCON,ioos:station:LUMCON:103:1,2010-07-01T04:00:00Z,30.1889,-90.1683,26.2,11111222 
LUMCON,ioos:station:LUMCON:103:1,2010-07-01T05:00:00Z,30.1889,-90.1683,26.7,11111222 
LUMCON,ioos:station:LUMCON:103:1,2010-07-01T06:00:00Z,30.1889,-90.1683,26.8,11111222 
LUMCON,ioos:station:LUMCON:103:1,2010-07-01T07:00:00Z,30.1889,-90.1683,26.5,11111222 
LUMCON,ioos:station:LUMCON:103:1,2010-07-01T08:00:00Z,30.1889,-90.1683,26.3,11111222 
LUMCON,ioos:station:LUMCON:103:1,2010-07-01T09:00:00Z,30.1889,-90.1683,25.9,11111222 
LUMCON,ioos:station:LUMCON:103:1,2010-07-01T10:00:00Z,30.1889,-90.1683,25.7,11111222 
LUMCON,ioos:station:LUMCON:103:1,2010-07-01T11:00:00Z,30.1889,-90.1683,25.9,11111222 
LUMCON,ioos:station:LUMCON:103:1,2010-07-01T12:00:00Z,30.1889,-90.1683,26.0,11111222 
LUMCON,ioos:station:LUMCON:103:1,2010-07-01T13:00:00Z,30.1889,-90.1683,25.8,11111222 
LUMCON,ioos:station:LUMCON:103:1,2010-07-01T20:00:00Z,30.1889,-90.1683,26.5,11111222 
LUMCON,ioos:station:LUMCON:103:1,2010-07-01T22:00:00Z,30.1889,-90.1683,25.9,11111222 
LUMCON,ioos:station:LUMCON:103:1,2010-07-01T23:00:00Z,30.1889,-90.1683,26.5,11111222 
LUMCON,ioos:station:LUMCON:103:1,2010-07-02T00:00:00Z,30.1889,-90.1683,26.6,11111222 
LUMCON,ioos:station:LUMCON:103:1,2010-07-02T01:00:00Z,30.1889,-90.1683,26.4,11111222 
LUMCON,ioos:station:LUMCON:103:1,2010-07-02T02:00:00Z,30.1889,-90.1683,26.4,11111222 
LUMCON,ioos:station:LUMCON:103:1,2010-07-02T03:00:00Z,30.1889,-90.1683,26.2,11111222 
LUMCON,ioos:station:LUMCON:103:1,2010-07-02T04:00:00Z,30.1889,-90.1683,26.2,11111222 
LUMCON,ioos:station:LUMCON:103:1,2010-07-02T05:00:00Z,30.1889,-90.1683,26.0,11111222 
LUMCON,ioos:station:LUMCON:103:1,2010-07-02T06:00:00Z,30.1889,-90.1683,26.4,11111222 
LUMCON,ioos:station:LUMCON:103:1,2010-07-02T07:00:00Z,30.1889,-90.1683,26.6,11111222 
LUMCON,ioos:station:LUMCON:103:1,2010-07-02T08:00:00Z,30.1889,-90.1683,26.5,11111222 
LUMCON,ioos:station:LUMCON:103:1,2010-07-02T09:00:00Z,30.1889,-90.1683,26.4,11111222 
LUMCON,ioos:station:LUMCON:103:1,2010-07-02T10:00:00Z,30.1889,-90.1683,26.3,11111222 
LUMCON,ioos:station:LUMCON:103:1,2010-07-02T11:00:00Z,30.1889,-90.1683,26.0,11111222 
LUMCON,ioos:station:LUMCON:103:1,2010-07-02T12:00:00Z,30.1889,-90.1683,25.9,11111222 
LUMCON,ioos:station:LUMCON:103:1,2010-07-02T23:00:00Z,30.1889,-90.1683,28.4,11111222 
LUMCON,ioos:station:LUMCON:103:1,2010-07-03T00:00:00Z,30.1889,-90.1683,28.2,11111222 
LUMCON,ioos:station:LUMCON:103:1,2010-07-03T01:00:00Z,30.1889,-90.1683,27.9,11111222 
LUMCON,ioos:station:LUMCON:103:1,2010-07-03T02:00:00Z,30.1889,-90.1683,27.6,11111222 
LUMCON,ioos:station:LUMCON:103:1,2010-07-03T03:00:00Z,30.1889,-90.1683,27.2,11111222 
LUMCON,ioos:station:LUMCON:103:1,2010-07-03T04:00:00Z,30.1889,-90.1683,26.6,11111222 
LUMCON,ioos:station:LUMCON:103:1,2010-07-03T05:00:00Z,30.1889,-90.1683,26.7,11111222 
LUMCON,ioos:station:LUMCON:103:1,2010-07-03T06:00:00Z,30.1889,-90.1683,26.7,11111222 
LUMCON,ioos:station:LUMCON:103:1,2010-07-03T07:00:00Z,30.1889,-90.1683,26.4,11111222 
LUMCON,ioos:station:LUMCON:103:1,2010-07-03T09:00:00Z,30.1889,-90.1683,26.0,11111222 
LUMCON,ioos:station:LUMCON:103:1,2010-07-03T10:00:00Z,30.1889,-90.1683,25.8,11111222 
LUMCON,ioos:station:LUMCON:103:1,2010-07-03T11:00:00Z,30.1889,-90.1683,25.8,11111222 
LUMCON,ioos:station:LUMCON:103:1,2010-07-03T12:00:00Z,30.1889,-90.1683,25.4,11111222 
LUMCON,ioos:station:LUMCON:103:1,2010-07-03T16:00:00Z,30.1889,-90.1683,28.2,11111222 
LUMCON,ioos:station:LUMCON:103:1,2010-07-03T17:00:00Z,30.1889,-90.1683,28.1,11111222 
LUMCON,ioos:station:LUMCON:103:1,2010-07-03T18:00:00Z,30.1889,-90.1683,28.6,11111222 
LUMCON,ioos:station:LUMCON:103:1,2010-07-03T19:00:00Z,30.1889,-90.1683,28.3,11111222 
LUMCON,ioos:station:LUMCON:103:1,2010-07-03T21:00:00Z,30.1889,-90.1683,27.7,11111222 
LUMCON,ioos:station:LUMCON:103:1,2010-07-03T22:00:00Z,30.1889,-90.1683,27.9,11111222 
LUMCON,ioos:station:LUMCON:103:1,2010-07-03T23:00:00Z,30.1889,-90.1683,28.2,11111222 
LUMCON,ioos:station:LUMCON:103:1,2010-07-04T00:00:00Z,30.1889,-90.1683,27.7,11111222 
LUMCON,ioos:station:LUMCON:103:1,2010-07-04T01:00:00Z,30.1889,-90.1683,27.7,11111222 
LUMCON,ioos:station:LUMCON:103:1,2010-07-04T02:00:00Z,30.1889,-90.1683,27.8,11111222 
LUMCON,ioos:station:LUMCON:103:1,2010-07-04T03:00:00Z,30.1889,-90.1683,27.7,11111222 
LUMCON,ioos:station:LUMCON:103:1,2010-07-04T04:00:00Z,30.1889,-90.1683,27.8,11111222 
LUMCON,ioos:station:LUMCON:103:1,2010-07-04T05:00:00Z,30.1889,-90.1683,27.8,11111222 
LUMCON,ioos:station:LUMCON:103:1,2010-07-04T06:00:00Z,30.1889,-90.1683,27.6,11111222 
LUMCON,ioos:station:LUMCON:103:1,2010-07-04T07:00:00Z,30.1889,-90.1683,27.5,11111222 
LUMCON,ioos:station:LUMCON:103:1,2010-07-04T08:00:00Z,30.1889,-90.1683,27.5,11111222 
LUMCON,ioos:station:LUMCON:103:1,2010-07-04T09:00:00Z,30.1889,-90.1683,27.3,11111222 
LUMCON,ioos:station:LUMCON:103:1,2010-07-04T10:00:00Z,30.1889,-90.1683,27.3,11111222 
LUMCON,ioos:station:LUMCON:103:1,2010-07-04T11:00:00Z,30.1889,-90.1683,27.3,11111222 
LUMCON,ioos:station:LUMCON:103:1,2010-07-04T12:00:00Z,30.1889,-90.1683,27.2,11111222 
LUMCON,ioos:station:LUMCON:103:1,2010-07-04T13:00:00Z,30.1889,-90.1683,27.5,11111222 
LUMCON,ioos:station:LUMCON:103:1,2010-07-04T14:00:00Z,30.1889,-90.1683,27.9,11111222 
LUMCON,ioos:station:LUMCON:103:1,2010-07-04T15:00:00Z,30.1889,-90.1683,28.2,11111222 
LUMCON,ioos:station:LUMCON:103:1,2010-07-04T16:00:00Z,30.1889,-90.1683,28.6,11111222 
LUMCON,ioos:station:LUMCON:103:1,2010-07-04T17:00:00Z,30.1889,-90.1683,28.9,11111222 
LUMCON,ioos:station:LUMCON:103:1,2010-07-04T18:00:00Z,30.1889,-90.1683,28.9,11111222 
LUMCON,ioos:station:LUMCON:103:1,2010-07-04T19:00:00Z,30.1889,-90.1683,28.9,11111222 
LUMCON,ioos:station:LUMCON:103:1,2010-07-04T20:00:00Z,30.1889,-90.1683,29.0,11111222 
LUMCON,ioos:station:LUMCON:103:1,2010-07-04T21:00:00Z,30.1889,-90.1683,29.1,11111222 
LUMCON,ioos:station:LUMCON:103:1,2010-07-04T22:00:00Z,30.1889,-90.1683,28.9,11111222 
LUMCON,ioos:station:LUMCON:103:1,2010-07-04T23:00:00Z,30.1889,-90.1683,28.9,11111222 
LUMCON,ioos:station:LUMCON:103:1,2010-07-05T00:00:00Z,30.1889,-90.1683,28.9,11111222 
LUMCON,ioos:station:LUMCON:103:1,2010-07-05T01:00:00Z,30.1889,-90.1683,28.5,11111222 
LUMCON,ioos:station:LUMCON:103:1,2010-07-05T02:00:00Z,30.1889,-90.1683,28.4,11111222 
LUMCON,ioos:station:LUMCON:103:1,2010-07-05T03:00:00Z,30.1889,-90.1683,28.3,11111222 
LUMCON,ioos:station:LUMCON:103:1,2010-07-05T04:00:00Z,30.1889,-90.1683,28.3,11111222 
LUMCON,ioos:station:LUMCON:103:1,2010-07-05T05:00:00Z,30.1889,-90.1683,28.1,11111222 
LUMCON,ioos:station:LUMCON:103:1,2010-07-05T06:00:00Z,30.1889,-90.1683,28.0,11111222 
LUMCON,ioos:station:LUMCON:103:1,2010-07-05T07:00:00Z,30.1889,-90.1683,27.8,11111222 
LUMCON,ioos:station:LUMCON:103:1,2010-07-05T08:00:00Z,30.1889,-90.1683,27.6,11111222 
LUMCON,ioos:station:LUMCON:103:1,2010-07-05T09:00:00Z,30.1889,-90.1683,27.0,11111222 
LUMCON,ioos:station:LUMCON:103:1,2010-07-05T10:00:00Z,30.1889,-90.1683,26.5,11111222 
LUMCON,ioos:station:LUMCON:103:1,2010-07-05T11:00:00Z,30.1889,-90.1683,26.5,11111222 
LUMCON,ioos:station:LUMCON:103:1,2010-07-05T12:00:00Z,30.1889,-90.1683,26.6,11111222 
LUMCON,ioos:station:LUMCON:103:1,2010-07-05T22:00:00Z,30.1889,-90.1683,27.0,11111222 
LUMCON,ioos:station:LUMCON:103:1,2010-07-05T23:00:00Z,30.1889,-90.1683,26.5,11111222 
LUMCON,ioos:station:LUMCON:103:1,2010-07-06T00:00:00Z,30.1889,-90.1683,25.9,11111222 
LUMCON,ioos:station:LUMCON:103:1,2010-07-06T01:00:00Z,30.1889,-90.1683,26.5,11111222 
LUMCON,ioos:station:LUMCON:103:1,2010-07-06T02:00:00Z,30.1889,-90.1683,27.2,11111222 
LUMCON,ioos:station:LUMCON:103:1,2010-07-06T03:00:00Z,30.1889,-90.1683,27.3,11111222 
LUMCON,ioos:station:LUMCON:103:1,2010-07-06T04:00:00Z,30.1889,-90.1683,27.5,11111222 
LUMCON,ioos:station:LUMCON:103:1,2010-07-06T05:00:00Z,30.1889,-90.1683,27.6,11111222 
LUMCON,ioos:station:LUMCON:103:1,2010-07-06T06:00:00Z,30.1889,-90.1683,27.7,11111222 
LUMCON,ioos:station:LUMCON:103:1,2010-07-06T07:00:00Z,30.1889,-90.1683,27.7,11111222 
LUMCON,ioos:station:LUMCON:103:1,2010-07-06T08:00:00Z,30.1889,-90.1683,27.6,11111222 
LUMCON,ioos:station:LUMCON:103:1,2010-07-06T09:00:00Z,30.1889,-90.1683,26.6,11111222 
LUMCON,ioos:station:LUMCON:103:1,2010-07-06T10:00:00Z,30.1889,-90.1683,27.1,11111222 
LUMCON,ioos:station:LUMCON:103:1,2010-07-06T11:00:00Z,30.1889,-90.1683,27.1,11111222 
LUMCON,ioos:station:LUMCON:103:1,2010-07-06T12:00:00Z,30.1889,-90.1683,27.1,11111222 
LUMCON,ioos:station:LUMCON:103:1,2010-07-06T23:00:00Z,30.1889,-90.1683,27.5,11111222 
LUMCON,ioos:station:LUMCON:103:1,2010-07-07T00:00:00Z,30.1889,-90.1683,26.7,11111222 
LUMCON,ioos:station:LUMCON:103:1,2010-07-07T01:00:00Z,30.1889,-90.1683,27.4,11111222 
LUMCON,ioos:station:LUMCON:103:1,2010-07-07T02:00:00Z,30.1889,-90.1683,27.8,11111222 
LUMCON,ioos:station:LUMCON:103:1,2010-07-07T03:00:00Z,30.1889,-90.1683,26.9,11111222 
LUMCON,ioos:station:LUMCON:103:1,2010-07-07T04:00:00Z,30.1889,-90.1683,27.7,11111222 
LUMCON,ioos:station:LUMCON:103:1,2010-07-07T05:00:00Z,30.1889,-90.1683,27.9,11111222 
LUMCON,ioos:station:LUMCON:103:1,2010-07-07T06:00:00Z,30.1889,-90.1683,27.4,11111222 
LUMCON,ioos:station:LUMCON:103:1,2010-07-07T07:00:00Z,30.1889,-90.1683,27.5,11111222 
LUMCON,ioos:station:LUMCON:103:1,2010-07-07T08:00:00Z,30.1889,-90.1683,27.5,11111222 
LUMCON,ioos:station:LUMCON:103:1,2010-07-07T09:00:00Z,30.1889,-90.1683,27.7,11111222 
LUMCON,ioos:station:LUMCON:103:1,2010-07-07T10:00:00Z,30.1889,-90.1683,27.8,11111222 
LUMCON,ioos:station:LUMCON:103:1,2010-07-07T11:00:00Z,30.1889,-90.1683,28.0,11111222 
LUMCON,ioos:station:LUMCON:103:1,2010-07-07T12:00:00Z,30.1889,-90.1683,28.1,11111222 
LUMCON,ioos:station:LUMCON:103:1,2010-07-07T13:00:00Z,30.1889,-90.1683,28.2,11111222 
LUMCON,ioos:station:LUMCON:103:1,2010-07-07T23:00:00Z,30.1889,-90.1683,27.2,11111222 
LUMCON,ioos:station:LUMCON:103:1,2010-07-08T00:00:00Z,30.1889,-90.1683,27.6,11111222 
LUMCON,ioos:station:LUMCON:103:1,2010-07-08T01:00:00Z,30.1889,-90.1683,27.6,11111222 
LUMCON,ioos:station:LUMCON:103:1,2010-07-08T02:00:00Z,30.1889,-90.1683,27.6,11111222 
LUMCON,ioos:station:LUMCON:103:1,2010-07-08T03:00:00Z,30.1889,-90.1683,28.0,11111222 
LUMCON,ioos:station:LUMCON:103:1,2010-07-08T04:00:00Z,30.1889,-90.1683,28.0,11111222 
LUMCON,ioos:station:LUMCON:103:1,2010-07-08T05:00:00Z,30.1889,-90.1683,27.8,11111222 
LUMCON,ioos:station:LUMCON:103:1,2010-07-08T06:00:00Z,30.1889,-90.1683,27.8,11111222 
LUMCON,ioos:station:LUMCON:103:1,2010-07-08T07:00:00Z,30.1889,-90.1683,27.5,11111222 
LUMCON,ioos:station:LUMCON:103:1,2010-07-08T08:00:00Z,30.1889,-90.1683,27.4,11111222 
LUMCON,ioos:station:LUMCON:103:1,2010-07-08T09:00:00Z,30.1889,-90.1683,27.4,11111222 
LUMCON,ioos:station:LUMCON:103:1,2010-07-08T10:00:00Z,30.1889,-90.1683,27.3,11111222 
LUMCON,ioos:station:LUMCON:103:1,2010-07-08T11:00:00Z,30.1889,-90.1683,27.1,11111222 
LUMCON,ioos:station:LUMCON:103:1,2010-07-08T23:00:00Z,30.1889,-90.1683,29.5,11111222 
LUMCON,ioos:station:LUMCON:103:1,2010-07-09T00:00:00Z,30.1889,-90.1683,29.6,11111222 
LUMCON,ioos:station:LUMCON:103:1,2010-07-09T01:00:00Z,30.1889,-90.1683,29.2,11111222 
LUMCON,ioos:station:LUMCON:103:1,2010-07-09T02:00:00Z,30.1889,-90.1683,29.0,11111222 
LUMCON,ioos:station:LUMCON:103:1,2010-07-09T03:00:00Z,30.1889,-90.1683,28.6,11111222 
LUMCON,ioos:station:LUMCON:103:1,2010-07-09T04:00:00Z,30.1889,-90.1683,28.3,11111222 
LUMCON,ioos:station:LUMCON:103:1,2010-07-09T05:00:00Z,30.1889,-90.1683,28.0,11111222 
LUMCON,ioos:station:LUMCON:103:1,2010-07-09T06:00:00Z,30.1889,-90.1683,27.8,11111222 
LUMCON,ioos:station:LUMCON:103:1,2010-07-09T07:00:00Z,30.1889,-90.1683,27.6,11111222 
LUMCON,ioos:station:LUMCON:103:1,2010-07-09T08:00:00Z,30.1889,-90.1683,27.1,11111222 
LUMCON,ioos:station:LUMCON:103:1,2010-07-09T09:00:00Z,30.1889,-90.1683,26.8,11111222 
LUMCON,ioos:station:LUMCON:103:1,2010-07-09T10:00:00Z,30.1889,-90.1683,27.0,11111222 
LUMCON,ioos:station:LUMCON:103:1,2010-07-09T11:00:00Z,30.1889,-90.1683,26.9,11111222 
LUMCON,ioos:station:LUMCON:103:1,2010-07-09T21:00:00Z,30.1889,-90.1683,30.4,11111222 
LUMCON,ioos:station:LUMCON:103:1,2010-07-09T22:00:00Z,30.1889,-90.1683,30.5,11111222 
LUMCON,ioos:station:LUMCON:103:1,2010-07-09T23:00:00Z,30.1889,-90.1683,30.5,11111222 
LUMCON,ioos:station:LUMCON:103:1,2010-07-10T00:00:00Z,30.1889,-90.1683,29.4,11111222 
LUMCON,ioos:station:LUMCON:103:1,2010-07-10T01:00:00Z,30.1889,-90.1683,28.9,11111222 
LUMCON,ioos:station:LUMCON:103:1,2010-07-10T02:00:00Z,30.1889,-90.1683,28.7,11111222 
LUMCON,ioos:station:LUMCON:103:1,2010-07-10T03:00:00Z,30.1889,-90.1683,28.4,11111222 
LUMCON,ioos:station:LUMCON:103:1,2010-07-10T04:00:00Z,30.1889,-90.1683,28.2,11111222 
LUMCON,ioos:station:LUMCON:103:1,2010-07-10T05:00:00Z,30.1889,-90.1683,28.1,11111222 
LUMCON,ioos:station:LUMCON:103:1,2010-07-10T06:00:00Z,30.1889,-90.1683,27.8,11111222 
LUMCON,ioos:station:LUMCON:103:1,2010-07-10T07:00:00Z,30.1889,-90.1683,27.5,11111222 
LUMCON,ioos:station:LUMCON:103:1,2010-07-10T08:00:00Z,30.1889,-90.1683,27.4,11111222 
LUMCON,ioos:station:LUMCON:103:1,2010-07-10T09:00:00Z,30.1889,-90.1683,27.4,11111222 
LUMCON,ioos:station:LUMCON:103:1,2010-07-10T10:00:00Z,30.1889,-90.1683,27.3,11111222 
LUMCON,ioos:station:LUMCON:103:1,2010-07-10T11:00:00Z,30.1889,-90.1683,27.3,11111222 
LUMCON,ioos:station:LUMCON:103:1,2010-07-10T12:00:00Z,30.1889,-90.1683,27.3,11111222 
LUMCON,ioos:station:LUMCON:103:1,2010-07-10T16:00:00Z,30.1889,-90.1683,23.9,11111222 
LUMCON,ioos:station:LUMCON:103:1,2010-07-10T19:00:00Z,30.1889,-90.1683,30.1,11111222 
LUMCON,ioos:station:LUMCON:103:1,2010-07-10T20:00:00Z,30.1889,-90.1683,30.5,11111222 
LUMCON,ioos:station:LUMCON:103:1,2010-07-10T21:00:00Z,30.1889,-90.1683,29.4,11111222 
LUMCON,ioos:station:LUMCON:103:1,2010-07-10T22:00:00Z,30.1889,-90.1683,29.5,11111222 
LUMCON,ioos:station:LUMCON:103:1,2010-07-10T23:00:00Z,30.1889,-90.1683,29.0,11111222 
LUMCON,ioos:station:LUMCON:103:1,2010-07-11T00:00:00Z,30.1889,-90.1683,28.7,11111222 
LUMCON,ioos:station:LUMCON:103:1,2010-07-11T01:00:00Z,30.1889,-90.1683,28.4,11111222 
LUMCON,ioos:station:LUMCON:103:1,2010-07-11T02:00:00Z,30.1889,-90.1683,28.2,11111222 
LUMCON,ioos:station:LUMCON:103:1,2010-07-11T03:00:00Z,30.1889,-90.1683,28.0,11111222 
LUMCON,ioos:station:LUMCON:103:1,2010-07-11T04:00:00Z,30.1889,-90.1683,27.8,11111222 
LUMCON,ioos:station:LUMCON:103:1,2010-07-11T05:00:00Z,30.1889,-90.1683,27.9,11111222 
LUMCON,ioos:station:LUMCON:103:1,2010-07-11T06:00:00Z,30.1889,-90.1683,28.0,11111222 
LUMCON,ioos:station:LUMCON:103:1,2010-07-11T07:00:00Z,30.1889,-90.1683,27.5,11111222 
LUMCON,ioos:station:LUMCON:103:1,2010-07-11T08:00:00Z,30.1889,-90.1683,27.4,11111222 
LUMCON,ioos:station:LUMCON:103:1,2010-07-11T09:00:00Z,30.1889,-90.1683,27.1,11111222 
LUMCON,ioos:station:LUMCON:103:1,2010-07-11T10:00:00Z,30.1889,-90.1683,27.1,11111222 
LUMCON,ioos:station:LUMCON:103:1,2010-07-11T11:00:00Z,30.1889,-90.1683,27.2,11111222 
LUMCON,ioos:station:LUMCON:103:1,2010-07-11T12:00:00Z,30.1889,-90.1683,27.4,11111222 
LUMCON,ioos:station:LUMCON:103:1,2010-07-11T13:00:00Z,30.1889,-90.1683,28.0,11111222 
LUMCON,ioos:station:LUMCON:103:1,2010-07-11T14:00:00Z,30.1889,-90.1683,28.5,11111222 
LUMCON,ioos:station:LUMCON:103:1,2010-07-11T15:00:00Z,30.1889,-90.1683,29.0,11111222 
LUMCON,ioos:station:LUMCON:103:1,2010-07-11T16:00:00Z,30.1889,-90.1683,29.3,11111222 
LUMCON,ioos:station:LUMCON:103:1,2010-07-11T18:00:00Z,30.1889,-90.1683,29.8,11111222 
LUMCON,ioos:station:LUMCON:103:1,2010-07-11T19:00:00Z,30.1889,-90.1683,29.8,11111222 
LUMCON,ioos:station:LUMCON:103:1,2010-07-11T20:00:00Z,30.1889,-90.1683,29.9,11111222 
LUMCON,ioos:station:LUMCON:103:1,2010-07-11T22:00:00Z,30.1889,-90.1683,29.8,11111222 
LUMCON,ioos:station:LUMCON:103:1,2010-07-11T23:00:00Z,30.1889,-90.1683,29.5,11111222 
LUMCON,ioos:station:LUMCON:103:1,2010-07-12T00:00:00Z,30.1889,-90.1683,29.5,11111222 
LUMCON,ioos:station:LUMCON:103:1,2010-07-12T01:00:00Z,30.1889,-90.1683,29.1,11111222 
LUMCON,ioos:station:LUMCON:103:1,2010-07-12T02:00:00Z,30.1889,-90.1683,28.8,11111222 
LUMCON,ioos:station:LUMCON:103:1,2010-07-12T03:00:00Z,30.1889,-90.1683,28.5,11111222 
LUMCON,ioos:station:LUMCON:103:1,2010-07-12T04:00:00Z,30.1889,-90.1683,28.2,11111222 
LUMCON,ioos:station:LUMCON:103:1,2010-07-12T05:00:00Z,30.1889,-90.1683,27.8,11111222 
LUMCON,ioos:station:LUMCON:103:1,2010-07-12T06:00:00Z,30.1889,-90.1683,27.5,11111222 
LUMCON,ioos:station:LUMCON:103:1,2010-07-12T07:00:00Z,30.1889,-90.1683,27.4,11111222 
LUMCON,ioos:station:LUMCON:103:1,2010-07-12T08:00:00Z,30.1889,-90.1683,27.3,11111222 
LUMCON,ioos:station:LUMCON:103:1,2010-07-12T09:00:00Z,30.1889,-90.1683,27.3,11111222 
LUMCON,ioos:station:LUMCON:103:1,2010-07-12T10:00:00Z,30.1889,-90.1683,27.4,11111222 
LUMCON,ioos:station:LUMCON:103:1,2010-07-12T11:00:00Z,30.1889,-90.1683,27.3,11111222 
LUMCON,ioos:station:LUMCON:103:1,2010-07-12T12:00:00Z,30.1889,-90.1683,27.4,11111222 
LUMCON,ioos:station:LUMCON:103:1,2010-07-12T23:00:00Z,30.1889,-90.1683,30.5,11111222 
LUMCON,ioos:station:LUMCON:103:1,2010-07-13T00:00:00Z,30.1889,-90.1683,30.2,11111222 
LUMCON,ioos:station:LUMCON:103:1,2010-07-13T01:00:00Z,30.1889,-90.1683,29.5,11111222 
LUMCON,ioos:station:LUMCON:103:1,2010-07-13T02:00:00Z,30.1889,-90.1683,29.0,11111222 
LUMCON,ioos:station:LUMCON:103:1,2010-07-13T03:00:00Z,30.1889,-90.1683,28.6,11111222 
LUMCON,ioos:station:LUMCON:103:1,2010-07-13T04:00:00Z,30.1889,-90.1683,28.4,11111222 
LUMCON,ioos:station:LUMCON:103:1,2010-07-13T05:00:00Z,30.1889,-90.1683,28.2,11111222 
LUMCON,ioos:station:LUMCON:103:1,2010-07-13T06:00:00Z,30.1889,-90.1683,27.8,11111222 
LUMCON,ioos:station:LUMCON:103:1,2010-07-13T07:00:00Z,30.1889,-90.1683,27.7,11111222 
LUMCON,ioos:station:LUMCON:103:1,2010-07-13T08:00:00Z,30.1889,-90.1683,27.7,11111222 
LUMCON,ioos:station:LUMCON:103:1,2010-07-13T09:00:00Z,30.1889,-90.1683,27.5,11111222 
LUMCON,ioos:station:LUMCON:103:1,2010-07-13T10:00:00Z,30.1889,-90.1683,27.5,11111222 
LUMCON,ioos:station:LUMCON:103:1,2010-07-13T11:00:00Z,30.1889,-90.1683,27.3,11111222 
LUMCON,ioos:station:LUMCON:103:1,2010-07-14T00:00:00Z,30.1889,-90.1683,30.5,11111222 
LUMCON,ioos:station:LUMCON:103:1,2010-07-14T01:00:00Z,30.1889,-90.1683,29.7,11111222 
LUMCON,ioos:station:LUMCON:103:1,2010-07-14T02:00:00Z,30.1889,-90.1683,29.3,11111222 
LUMCON,ioos:station:LUMCON:103:1,2010-07-14T03:00:00Z,30.1889,-90.1683,28.8,11111222 
LUMCON,ioos:station:LUMCON:103:1,2010-07-14T04:00:00Z,30.1889,-90.1683,28.5,11111222 
LUMCON,ioos:station:LUMCON:103:1,2010-07-14T05:00:00Z,30.1889,-90.1683,28.1,11111222 
LUMCON,ioos:station:LUMCON:103:1,2010-07-14T06:00:00Z,30.1889,-90.1683,27.9,11111222 
LUMCON,ioos:station:LUMCON:103:1,2010-07-14T07:00:00Z,30.1889,-90.1683,27.6,11111222 
LUMCON,ioos:station:LUMCON:103:1,2010-07-14T08:00:00Z,30.1889,-90.1683,27.5,11111222 
LUMCON,ioos:station:LUMCON:103:1,2010-07-14T09:00:00Z,30.1889,-90.1683,27.2,11111222 
LUMCON,ioos:station:LUMCON:103:1,2010-07-14T10:00:00Z,30.1889,-90.1683,27.0,11111222 
LUMCON,ioos:station:LUMCON:103:1,2010-07-14T11:00:00Z,30.1889,-90.1683,26.5,11111222 
LUMCON,ioos:station:LUMCON:103:1,2010-07-14T12:00:00Z,30.1889,-90.1683,26.5,11111222 
LUMCON,ioos:station:LUMCON:103:1,2010-07-14T13:00:00Z,30.1889,-90.1683,27.2,11111222 
LUMCON,ioos:station:LUMCON:103:1,2010-07-14T14:00:00Z,30.1889,-90.1683,28.0,11111222 
LUMCON,ioos:station:LUMCON:103:1,2010-07-14T15:00:00Z,30.1889,-90.1683,28.5,11111222 
LUMCON,ioos:station:LUMCON:103:1,2010-07-14T16:00:00Z,30.1889,-90.1683,29.1,11111222 
LUMCON,ioos:station:LUMCON:103:1,2010-07-14T17:00:00Z,30.1889,-90.1683,29.7,11111222 
LUMCON,ioos:station:LUMCON:103:1,2010-07-14T18:00:00Z,30.1889,-90.1683,30.2,11111222 
LUMCON,ioos:station:LUMCON:103:1,2010-07-14T19:00:00Z,30.1889,-90.1683,31.1,11111222 
LUMCON,ioos:station:LUMCON:103:1,2010-07-14T20:00:00Z,30.1889,-90.1683,31.5,11111222 
LUMCON,ioos:station:LUMCON:103:1,2010-07-14T21:00:00Z,30.1889,-90.1683,31.7,11111222 
LUMCON,ioos:station:LUMCON:103:1,2010-07-14T22:00:00Z,30.1889,-90.1683,31.8,11111222 
LUMCON,ioos:station:LUMCON:103:1,2010-07-14T23:00:00Z,30.1889,-90.1683,31.8,11111222 
LUMCON,ioos:station:LUMCON:103:1,2010-07-15T00:00:00Z,30.1889,-90.1683,31.6,11111222 
LUMCON,ioos:station:LUMCON:103:1,2010-07-15T01:00:00Z,30.1889,-90.1683,30.7,11111222 
LUMCON,ioos:station:LUMCON:103:1,2010-07-15T02:00:00Z,30.1889,-90.1683,30.2,11111222 
LUMCON,ioos:station:LUMCON:103:1,2010-07-15T03:00:00Z,30.1889,-90.1683,29.9,11111222 
LUMCON,ioos:station:LUMCON:103:1,2010-07-15T04:00:00Z,30.1889,-90.1683,29.3,11111222 
LUMCON,ioos:station:LUMCON:103:1,2010-07-15T05:00:00Z,30.1889,-90.1683,29.1,11111222 
LUMCON,ioos:station:LUMCON:103:1,2010-07-15T06:00:00Z,30.1889,-90.1683,28.3,11111222 
LUMCON,ioos:station:LUMCON:103:1,2010-07-15T07:00:00Z,30.1889,-90.1683,28.1,11111222 
LUMCON,ioos:station:LUMCON:103:1,2010-07-15T08:00:00Z,30.1889,-90.1683,27.7,11111222 
LUMCON,ioos:station:LUMCON:103:1,2010-07-15T09:00:00Z,30.1889,-90.1683,26.9,11111222 
LUMCON,ioos:station:LUMCON:103:1,2010-07-15T10:00:00Z,30.1889,-90.1683,26.5,11111222 
LUMCON,ioos:station:LUMCON:103:1,2010-07-15T11:00:00Z,30.1889,-90.1683,26.1,11111222 
LUMCON,ioos:station:LUMCON:103:1,2010-07-15T12:00:00Z,30.1889,-90.1683,25.8,11111222 
LUMCON,ioos:station:LUMCON:103:1,2010-07-15T13:00:00Z,30.1889,-90.1683,26.4,11111222 
LUMCON,ioos:station:LUMCON:103:1,2010-07-15T14:00:00Z,30.1889,-90.1683,26.9,11111222 
LUMCON,ioos:station:LUMCON:103:1,2010-07-15T15:00:00Z,30.1889,-90.1683,28.0,11111222 
LUMCON,ioos:station:LUMCON:103:1,2010-07-15T16:00:00Z,30.1889,-90.1683,29.3,11111222 
LUMCON,ioos:station:LUMCON:103:1,2010-07-15T17:00:00Z,30.1889,-90.1683,30.6,11111222 
LUMCON,ioos:station:LUMCON:103:1,2010-07-15T18:00:00Z,30.1889,-90.1683,31.2,11111222 
LUMCON,ioos:station:LUMCON:103:1,2010-07-15T19:00:00Z,30.1889,-90.1683,31.7,11111222 
LUMCON,ioos:station:LUMCON:103:1,2010-07-15T20:00:00Z,30.1889,-90.1683,32.2,11111222 
LUMCON,ioos:station:LUMCON:103:1,2010-07-15T21:00:00Z,30.1889,-90.1683,33.7,11111222 
LUMCON,ioos:station:LUMCON:103:1,2010-07-15T22:00:00Z,30.1889,-90.1683,33.5,11111222 
LUMCON,ioos:station:LUMCON:103:1,2010-07-15T23:00:00Z,30.1889,-90.1683,33.4,11111222 
LUMCON,ioos:station:LUMCON:103:1,2010-07-16T00:00:00Z,30.1889,-90.1683,33.2,11111222 
LUMCON,ioos:station:LUMCON:103:1,2010-07-16T01:00:00Z,30.1889,-90.1683,32.1,11111222 
LUMCON,ioos:station:LUMCON:103:1,2010-07-16T02:00:00Z,30.1889,-90.1683,31.6,11111222 
LUMCON,ioos:station:LUMCON:103:1,2010-07-16T03:00:00Z,30.1889,-90.1683,31.0,11111222 
LUMCON,ioos:station:LUMCON:103:1,2010-07-16T04:00:00Z,30.1889,-90.1683,30.4,11111222 
LUMCON,ioos:station:LUMCON:103:1,2010-07-16T05:00:00Z,30.1889,-90.1683,30.0,11111222 
LUMCON,ioos:station:LUMCON:103:1,2010-07-16T06:00:00Z,30.1889,-90.1683,29.3,11111222 
LUMCON,ioos:station:LUMCON:103:1,2010-07-16T07:00:00Z,30.1889,-90.1683,28.2,11111222 
LUMCON,ioos:station:LUMCON:103:1,2010-07-16T08:00:00Z,30.1889,-90.1683,27.9,11111222 
LUMCON,ioos:station:LUMCON:103:1,2010-07-16T09:00:00Z,30.1889,-90.1683,27.3,11111222 
LUMCON,ioos:station:LUMCON:103:1,2010-07-16T10:00:00Z,30.1889,-90.1683,26.2,11111222 
LUMCON,ioos:station:LUMCON:103:1,2010-07-16T11:00:00Z,30.1889,-90.1683,25.7,11111222 
LUMCON,ioos:station:LUMCON:103:1,2010-07-16T12:00:00Z,30.1889,-90.1683,25.4,11111222 
LUMCON,ioos:station:LUMCON:103:1,2010-07-16T13:00:00Z,30.1889,-90.1683,25.8,11111222 
LUMCON,ioos:station:LUMCON:103:1,2010-07-16T14:00:00Z,30.1889,-90.1683,25.2,11111222 
LUMCON,ioos:station:LUMCON:103:1,2010-07-16T15:00:00Z,30.1889,-90.1683,24.8,11111222 
LUMCON,ioos:station:LUMCON:103:1,2010-07-16T16:00:00Z,30.1889,-90.1683,26.7,11111222 